sat.trackr.live / text

‹ back to catalog

STARLINK-34142

NORAD 63957 · 2025-099F

PAYLOAD ACTIVE UNKNOWN

§ Identity

Operator
Country
US
Launch date
2025-05-13
Launch site
AFETR
Launch vehicle
Mass (kg)
RCS (m²)

Purposes: comms

External: N2YO · Heavens-Above · Gunter

§ Orbital elements

Epoch: 2026-05-25T04:33:21.128832Z

Period
94.27 min
Inclination
43.0006°
Eccentricity
0.0000826
Mean motion
15.27588659 rev/d
Perigee alt
482.5 km
Apogee alt
483.6 km
Semi-major
6,861.2 km
B*
5.1273e-4
RAAN
104.3943°
Arg perigee
274.3334°
Mean anomaly
85.7423°
Rev number
5,903

§ Raw data

STARLINK-341421 63957U 25099F   26145.18982788  .00013878  00000+0  51273-3 0  99912 63957  43.0006 104.3943 0000826 274.3334  85.7423 15.27588659 59033

JSON: /api/v1/satellites/63957 · /tle

For live sub-satellite position, see the globe view (requires WebGL).

§ Visibility from observer

Set your observer location to see the next 7 days of passes ≥ 10°. The values pass through the URL so the page stays shareable.

No JS? Fill the form by hand. The geolocation button needs JavaScript.